Flag for Guatemala Weather past 2 weeks in Escuintla, Guatemala

Now
72 °F

Partly sunny.


Feels Like: 75 °F
Forecast: 72 / 90 °F
Wind: 9 mph from Northeast

Location: Guatemala Aeropuertola Aurora

Current Time: May 27, 2015 at 10:24:52 AM

Latest Report: May 27, 2015 at 10:00 AM


Visibility: N/A

Pressure: 30.30 "Hg

Humidity: 69%

Dew point: 61 °F

Location of EscuintlaLocation

Historic Weather in Escuintla — Graph

°F

Escuintla temperature yesterday

Maximum temperature yesterday: 81 °F (at 1:00 PM)
Minimum temperature yesterday: 64 °F (at 2:00 AM)
Average temperature yesterday: 70 °F

Past Weeks' High & Low Weather Summary

 TemperatureHumidityPressure
High84 °F (May 21, 2:00 PM)100% (May 15, 11:00 PM)30.39 "Hg (May 15, 11:00 PM)
Low59 °F (May 16, 4:00 AM)29% (May 21, 2:00 PM)30.18 "Hg (May 12, 3:00 PM)
Average69 °F77%30.28 "Hg
* Reported May 12 9:00 AM — May 27 9:00 AM, Escuintla, Weather by CustomWeather, © 2015

Note: Actual official high and low records may vary slightly from our data, if they occured in-between our weather recording intervals... More about our weather records

Advertising

Escuintla weather history for previous 24 hours

 ConditionsComfort  
Time TempWeatherWind HumidityBarometerVisibility
9:00 AM
Wed, May 27
70 °FOvercast.9 mph73%30.30 "HgN/A
8:00 AM68 °FOvercast.7 mph78%30.30 "Hg5 mi
7:00 AM64 °FPartly sunny.7 mph88%30.30 "Hg5 mi
6:00 AM63 °FPartly sunny.5 mph94%30.27 "Hg5 mi
5:00 AM63 °FPassing clouds.5 mph94%30.27 "HgN/A
4:00 AM64 °FPassing clouds.5 mph88%30.27 "HgN/A
3:00 AM64 °FPassing clouds.5 mph88%30.27 "HgN/A
2:00 AM64 °FPassing clouds.5 mph88%30.27 "HgN/A
1:00 AM64 °FOvercast.7 mph83%30.30 "HgN/A
12:00 AM66 °FOvercast.7 mph83%30.30 "HgN/A
11:00 PM
Tue, May 26
66 °FPartly cloudy.7 mph83%30.33 "HgN/A
10:00 PM68 °FPartly cloudy.12 mph83%30.33 "HgN/A
9:00 PM68 °FPassing clouds.3 mph88%30.30 "HgN/A
8:00 PM68 °FPassing clouds.3 mph88%30.27 "HgN/A
7:00 PM68 °FPassing clouds.7 mph88%30.24 "HgN/A
6:00 PM70 °FPartly sunny.3 mph78%30.24 "HgN/A
5:00 PM70 °FScattered clouds.7 mph78%30.21 "HgN/A
4:00 PM72 °FScattered clouds.7 mph78%30.21 "HgN/A
3:00 PM75 °FThunderstorms. Scattered clouds.9 mph57%30.21 "Hg4 mi
2:00 PM81 °FScattered showers. Scattered clouds.12 mph48%30.21 "Hg5 mi
1:00 PM81 °FScattered clouds.9 mph51%30.24 "HgN/A
12:00 PM77 °FScattered clouds.9 mph65%30.27 "HgN/A
11:00 AM77 °FPassing clouds.9 mph61%30.30 "Hg5 mi
10:00 AM73 °FPassing clouds.9 mph69%30.30 "Hg5 mi
Weather by CustomWeather, © 2015

See weather overviewHow to use our weather pages